Theta_e
315 316 317 315 315 315 314 313 314 314 314 312 314 316 315 315 315 317 319 320 321 321 322 321 342 350 354 355 354 354 354 354 353 351 348 348 347 348 347 347 347 346 343 341
316 317 316 315 316 316 316 316 316 316 315 315 315 314 313 315 316 318 319 320 322 322 323 324 347 352 354 355 355 354 353 353 350 348 347 345 346 347 346 345 346 345 345 346
316 317 315 315 316 316 317 317 316 316 316 316 315 315 315 314 313 315 317 319 321 323 323 331 349 355 356 356 355 354 352 349 348 348 348 348 348 349 348 348 347 347 346 344
315 315 316 317 317 316 318 316 316 315 315 319 316 319 316 315 315 313 315 318 320 322 323 334 352 358 357 356 355 353 351 352 350 348 347 347 344 346 345 344 341 339 338 338
318 316 316 318 317 316 317 316 317 318 318 316 317 317 316 315 314 313 314 317 320 322 323 331 353 356 355 355 353 352 351 350 349 347 347 348 344 340 338 338 337 334 334 334
316 315 315 317 316 316 316 318 319 318 318 324 318 318 317 315 315 314 316 315 319 322 323 329 350 354 355 354 353 352 351 349 348 348 349 343 341 338 336 335 334 333 332 332
316 317 317 316 318 317 316 322 324 325 324 321 315 316 317 314 314 316 316 317 319 322 324 329 351 355 355 354 353 352 350 349 348 350 346 343 340 340 340 339 335 332 332 332
320 319 316 317 318 318 319 319 322 325 321 317 315 315 315 315 314 316 317 319 319 323 324 331 349 353 354 353 352 348 349 350 348 346 346 345 344 344 341 335 332 331 331 327
321 319 315 315 316 317 320 321 318 320 317 318 315 315 314 315 314 314 319 319 320 324 324 338 349 352 352 352 349 349 349 348 346 347 347 346 345 341 337 335 334 328 327 325
317 321 315 314 316 316 318 317 323 321 319 320 315 314 313 315 314 314 318 322 323 324 328 343 350 353 351 348 348 349 348 348 346 347 346 342 339 336 332 330 328 329 327 324
314 312 316 317 319 319 319 319 319 317 316 321 316 314 316 313 315 314 318 322 324 324 336 347 349 347 344 345 347 348 349 345 346 344 338 334 334 331 330 328 330 327 323 320
313 313 320 318 316 316 316 317 317 322 319 316 317 319 321 313 316 316 320 322 324 326 343 345 340 339 340 342 342 342 342 342 334 332 331 331 332 331 328 327 325 322 320 318
311 316 321 322 319 318 318 317 318 318 319 320 322 319 316 317 324 318 323 323 324 337 341 338 337 337 336 336 336 334 334 331 327 328 328 331 330 329 326 323 321 319 317 316
314 315 319 322 321 319 320 317 316 317 320 318 317 318 315 319 326 322 324 324 332 341 337 336 334 333 330 329 329 327 327 326 326 327 325 324 323 321 319 319 318 317 316 315
313 319 319 319 321 320 320 318 318 318 316 320 318 323 320 321 321 324 324 341 338 335 333 332 332 330 327 326 324 323 325 326 324 323 320 317 316 316 317 317 316 314 313 312
313 319 319 322 321 318 319 316 317 318 320 320 320 323 321 324 324 328 341 336 333 332 330 330 329 327 325 323 322 321 321 322 322 322 319 317 316 317 316 315 313 312 311 311
312 318 321 326 323 321 325 320 319 319 320 314 323 321 323 330 338 339 335 333 331 329 329 328 328 326 324 322 322 322 320 319 318 317 317 317 316 316 314 313 312 311 311 310
312 316 322 327 325 328 321 314 313 312 317 313 322 319 325 332 331 331 330 330 327 327 326 325 326 326 326 326 325 325 325 322 321 319 318 317 316 315 313 312 310 309 308 308
309 314 324 327 327 324 321 313 310 311 312 314 314 325 324 323 321 320 323 323 323 323 323 324 325 326 326 325 324 324 323 322 321 319 317 316 315 314 313 311 310 308 307 307
312 315 320 321 323 327 317 308 306 306 326 310 312 326 326 328 323 320 317 317 318 319 320 322 323 323 322 322 321 320 319 318 317 316 316 315 314 313 312 310 309 308 308 307
313 313 318 319 322 322 307 304 310 322 315 309 316 321 325 321 317 314 314 314 315 318 320 320 321 321 320 319 318 317 317 316 315 315 315 314 313 312 311 309 309 308 308 307
309 309 314 314 319 322 306 305 309 309 306 311 313 313 312 312 311 311 312 312 314 316 317 318 318 317 316 315 315 314 313 313 312 313 314 313 312 311 309 308 307 305 305 305
313 307 307 308 311 306 303 302 303 310 307 310 309 309 309 309 309 310 311 313 314 315 315 315 314 314 313 313 312 311 311 310 310 311 311 311 311 310 308 306 305 304 303 304
308 303 306 307 306 303 302 301 305 308 307 306 307 306 306 306 306 307 309 311 312 313 312 311 311 310 310 309 309 309 309 309 309 309 308 307 306 305 304 303 303 303 303 303
306 304 305 306 305 301 302 300 303 306 305 306 305 306 303 303 302 303 305 308 311 310 309 308 308 308 308 307 307 307 307 307 307 307 306 305 304 303 301 300 300 299 297 299
303 304 305 308 300 300 300 297 304 305 305 306 304 303 302 302 301 300 301 302 304 306 305 304 304 304 305 305 306 306 307 307 306 305 305 304 303 301 300 298 295 293 293 294
Wind_Speed
14 13 16 19 19 19 20 20 21 18 11 13 19 20 17 19 21 20 18 16 16 16 14 20 21 26 27 30 29 28 29 27 25 20 18 16 15 15 12 10 10 9 8 8
11 19 21 20 21 21 22 23 24 21 17 15 22 21 22 20 22 21 20 19 17 15 13 17 23 27 30 32 31 29 29 28 24 19 15 14 14 14 12 10 9 9 9 9
18 20 18 15 16 19 21 23 23 22 18 18 18 22 25 26 26 23 24 21 18 17 15 18 21 27 30 31 31 30 28 26 22 18 18 16 14 13 12 13 16 14 15 16
16 17 15 20 23 21 21 18 19 18 13 17 17 19 22 21 25 25 27 23 22 20 16 18 22 24 31 30 29 27 26 24 21 21 19 18 17 17 16 23 22 19 17 16
16 16 16 17 16 13 18 16 18 16 17 18 24 13 25 19 21 23 26 26 24 21 19 20 23 27 30 29 28 26 25 24 23 19 18 18 24 24 28 28 26 22 17 17
26 21 18 22 15 15 13 11 10 13 12 14 25 21 23 18 21 24 23 28 25 22 19 20 24 28 29 28 28 27 26 26 24 23 23 25 34 33 31 28 25 21 18 17
15 20 21 18 18 14 7 6 6 8 8 18 12 16 21 18 16 21 25 26 27 24 20 21 24 23 28 29 28 28 28 27 28 26 25 27 29 28 26 24 20 25 24 17
8 5 7 13 18 9 17 18 10 7 15 17 21 11 22 28 26 19 21 23 25 23 19 23 24 22 28 30 30 29 31 32 29 28 26 24 24 21 19 18 22 17 13 12
5 7 4 9 15 10 3 10 16 3 11 9 16 15 20 17 16 25 14 19 24 21 19 24 25 23 30 32 31 33 34 31 29 27 26 25 21 23 22 22 19 17 18 15
2 9 14 13 5 7 9 6 4 6 7 15 15 19 17 19 18 24 23 17 20 21 22 24 24 20 28 29 31 33 33 33 30 28 27 24 25 28 25 21 20 19 17 14
3 7 7 5 9 12 5 3 9 10 10 6 13 14 20 19 20 26 24 24 21 23 24 23 19 21 29 29 30 32 31 30 29 25 31 30 28 23 21 21 21 18 16 15
7 4 6 18 12 15 12 13 16 7 13 12 14 14 21 13 17 25 22 23 25 24 25 21 19 23 27 30 29 27 29 27 26 33 34 32 27 25 24 22 20 18 16 13
2 4 5 5 8 10 7 12 15 17 11 13 6 7 20 28 22 24 24 25 24 24 23 19 19 18 20 25 26 26 27 28 30 35 34 29 26 25 24 23 21 18 16 13
7 4 8 10 19 3 6 7 14 14 9 11 11 15 26 20 20 21 21 25 26 23 21 18 18 18 22 24 27 28 29 32 33 32 31 28 26 26 26 24 21 18 15 13
2 5 8 16 20 11 10 10 7 15 16 7 7 14 23 19 16 17 22 27 22 21 20 18 19 18 21 26 27 29 30 32 32 34 31 30 29 28 26 23 20 17 15 13
3 4 12 14 7 3 4 6 7 12 13 13 14 19 16 17 15 19 25 24 23 22 20 20 21 21 18 26 28 30 30 31 33 33 33 31 29 26 24 22 20 18 16 14
4 5 5 5 7 2 6 7 9 6 7 4 8 11 13 9 21 20 20 20 24 23 23 22 21 19 26 30 32 31 34 34 35 34 31 30 29 26 23 21 20 18 16 14
8 9 6 6 9 2 4 9 7 8 6 10 11 18 12 20 17 16 14 20 21 23 23 21 19 26 32 33 33 34 34 34 33 32 30 28 27 26 23 21 20 18 15 14
9 5 6 6 9 2 2 8 8 7 3 14 18 1 23 25 27 16 15 16 19 20 19 21 30 32 33 35 35 35 33 32 31 29 28 26 25 24 23 21 19 17 16 14
10 6 5 7 5 6 5 20 20 4 3 17 17 9 19 21 14 4 16 17 18 18 26 28 33 36 35 33 33 33 31 30 29 27 26 25 23 22 22 20 18 16 15 14
9 7 8 9 3 2 10 24 19 3 6 20 13 4 14 12 7 12 19 19 18 23 28 33 34 33 33 32 33 32 30 28 27 26 25 24 23 22 21 19 15 13 13 12
5 6 4 5 4 4 23 14 8 9 12 10 9 12 22 22 15 16 20 19 19 22 30 32 33 32 30 30 31 31 29 27 27 26 25 23 21 20 18 17 14 13 12 10
2 4 5 4 4 9 13 11 15 8 2 5 8 10 20 21 16 16 18 19 19 26 30 31 32 31 28 27 28 31 28 27 27 26 24 22 21 19 17 16 14 12 10 8
2 4 3 8 4 13 11 14 18 11 10 11 11 12 15 24 17 16 17 16 18 30 29 30 30 28 27 26 27 29 27 26 26 25 23 21 21 19 17 14 12 10 9 10
4 9 7 4 6 13 7 16 15 11 12 14 15 15 15 23 18 17 16 15 20 30 28 28 26 26 26 26 27 25 25 25 25 23 22 21 20 19 18 16 14 13 12 11
3 4 5 3 7 4 8 15 11 11 9 10 18 19 15 19 20 18 16 21 23 28 27 25 24 24 24 24 25 23 22 23 24 23 19 19 18 17 16 18 20 19 19 19
Wind_Direction
228 239 241 250 255 254 272 275 269 269 267 263 266 275 270 248 249 245 250 243 248 237 238 223 197 192 186 186 182 183 181 179 173 173 179 179 178 175 175 174 172 173 178 182
251 243 251 262 267 264 262 261 262 265 260 260 265 266 257 253 251 257 250 243 242 242 228 219 187 192 187 184 181 185 181 175 174 176 175 174 171 167 162 157 154 153 152 148
263 268 291 262 255 254 251 252 262 270 273 254 260 268 262 252 245 246 249 251 246 242 224 200 190 190 188 182 178 184 177 168 169 166 153 147 140 132 139 138 131 123 122 125
283 279 274 272 253 252 255 258 266 269 263 255 234 258 255 248 234 229 239 234 234 230 227 206 191 188 184 178 178 176 171 160 165 164 154 152 161 140 139 144 140 131 129 138
251 270 278 267 256 268 270 290 276 263 247 262 251 245 257 248 236 230 224 225 227 225 213 209 193 182 178 175 170 168 161 162 160 157 150 144 126 128 128 132 135 134 142 152
266 274 267 255 268 264 270 290 255 225 238 242 236 234 258 250 234 227 220 216 217 216 208 206 189 178 177 168 160 156 159 161 158 155 144 145 140 139 135 140 144 146 143 142
308 265 225 239 249 252 197 188 211 198 202 237 229 217 237 249 244 232 218 212 207 206 201 196 182 179 166 161 158 154 153 152 156 150 147 148 149 153 155 153 152 147 144 144
287 305 194 209 229 229 214 212 229 226 217 245 215 231 230 231 240 267 236 218 203 196 192 193 178 168 159 155 155 145 149 146 149 154 152 151 149 151 148 144 147 150 134 135
299 254 1 278 246 262 150 216 242 293 282 289 263 224 242 260 240 234 230 218 201 183 194 180 171 157 155 157 145 153 147 145 149 149 145 145 148 142 139 141 145 140 140 128
272 281 267 276 279 231 216 347 193 202 247 245 248 238 251 223 221 214 219 225 196 178 188 175 159 152 151 145 151 146 145 146 146 142 140 140 146 140 141 140 138 135 131 130
252 220 275 263 212 217 175 213 228 268 248 259 267 258 268 217 216 203 203 203 182 177 170 160 128 131 138 142 140 140 141 139 142 134 137 138 131 129 135 135 137 134 129 130
264 276 259 263 255 257 234 222 226 233 228 239 268 269 328 184 232 191 207 193 182 172 157 124 125 135 131 127 130 132 134 131 121 128 127 124 127 128 129 126 125 127 126 124
181 232 280 252 215 224 239 226 232 236 259 267 275 279 295 311 303 176 199 179 161 145 116 123 129 125 117 119 120 116 120 117 118 121 119 125 128 127 127 128 128 127 124 118
209 246 243 271 303 343 244 227 221 230 253 262 262 295 278 288 300 182 189 159 143 124 132 128 120 116 112 114 116 114 112 117 120 122 121 122 125 125 125 124 123 121 118 112
234 263 245 253 273 268 242 263 194 239 242 251 287 255 277 280 272 185 166 121 126 136 130 124 119 117 117 115 113 111 115 121 121 120 119 119 120 119 119 117 115 113 108 101
273 276 303 292 285 208 224 198 210 236 261 261 261 270 275 266 257 165 123 132 137 131 121 120 120 119 118 116 114 115 117 120 124 123 123 124 120 119 116 114 111 105 98 93
289 304 302 295 331 301 122 10 308 327 298 281 266 267 273 278 133 125 127 137 133 129 126 122 121 118 118 117 121 122 122 120 117 116 118 120 121 118 115 111 106 101 100 101
309 312 280 288 306 315 105 42 344 317 289 307 285 251 253 98 88 95 117 128 123 122 119 116 117 118 120 125 123 124 127 124 123 124 125 125 121 119 116 111 106 103 102 98
317 295 301 319 331 330 25 22 341 330 298 351 355 315 94 96 85 56 88 99 110 113 114 115 118 118 122 125 127 127 126 125 124 124 122 122 121 119 116 111 110 109 104 95
320 270 248 330 322 352 15 329 327 185 356 347 327 136 116 118 100 86 100 94 100 104 110 116 119 120 119 122 125 123 121 120 119 121 121 120 120 119 117 115 111 108 101 96
339 356 351 341 333 97 3 329 314 343 332 316 348 327 106 96 80 112 105 97 101 109 113 117 117 115 119 123 122 117 117 113 116 118 118 116 118 118 116 112 106 105 98 90
325 332 360 328 335 350 358 345 4 307 295 315 27 87 99 98 97 103 102 105 109 110 114 114 114 114 115 119 119 115 111 115 116 115 116 117 117 115 114 111 107 99 93 86
340 10 313 334 336 339 322 306 301 336 94 39 68 83 107 101 93 105 105 110 110 110 110 112 111 112 114 116 116 112 115 117 116 114 115 115 114 112 112 109 103 96 87 82
136 35 277 321 61 334 320 335 344 70 70 73 76 87 98 97 92 94 99 105 109 110 108 109 108 108 108 110 111 112 116 116 116 115 115 115 113 109 103 98 94 91 85 79
13 309 326 262 344 326 337 346 344 75 82 87 79 85 92 95 83 86 84 93 101 106 109 105 108 110 111 112 111 113 118 120 118 117 117 116 112 107 101 90 80 79 72 67
4 351 339 349 329 299 299 322 3 64 68 84 101 81 67 86 88 82 77 76 88 100 103 104 103 105 106 110 111 116 120 123 122 120 120 119 116 111 107 103 90 86 88 89